| time (UTC) | temp F | wind direction | speed MPH | gust MPH | rain 1hr in | rain 24hr in | rain mn in | humidity % | barometer mb |
| 20260507203020 | 53 | 332 | 4.0 | 5.0 | 0.00 | 0.02 | 0.02 | 52 | 1010.0 |
| 20260507202516 | 53 | 299 | 4.0 | 6.0 | 0.00 | 0.02 | 0.02 | 49 | 1010.0 |
| 20260507202012 | 54 | 269 | 6.0 | 9.0 | 0.00 | 0.02 | 0.02 | 48 | 1010.2 |
| 20260507201508 | 55 | 291 | 8.0 | 9.0 | 0.00 | 0.02 | 0.02 | 46 | 1010.1 |
| 20260507201004 | 55 | 289 | 5.0 | 7.0 | 0.00 | 0.02 | 0.02 | 47 | 1010.3 |
| 20260507200500 | 53 | 237 | 4.0 | 5.0 | 0.00 | 0.02 | 0.02 | 49 | 1010.0 |
| 20260507195955 | 53 | 271 | 4.0 | 6.0 | 0.00 | 0.02 | 0.02 | 49 | 1010.2 |
| 20260507195454 | 54 | 280 | 9.0 | 11.0 | 0.00 | 0.02 | 0.02 | 46 | 1010.3 |
| 20260507194951 | 55 | 352 | 7.0 | 9.0 | 0.00 | 0.02 | 0.02 | 47 | 1010.0 |
| 20260507194447 | 55 | 304 | 7.0 | 8.0 | 0.00 | 0.02 | 0.02 | 49 | 1010.2 |
| 20260507193943 | 56 | 273 | 3.0 | 6.0 | 0.00 | 0.02 | 0.02 | 46 | 1010.3 |
| 20260507193440 | 54 | 265 | 4.0 | 6.0 | 0.00 | 0.02 | 0.02 | 47 | 1010.3 |
| 20260507192937 | 56 | 185 | 1.0 | 1.0 | 0.00 | 0.02 | 0.02 | 48 | 1010.4 |
| 20260507192433 | 55 | 9 | 3.0 | 3.0 | 0.00 | 0.02 | 0.02 | 52 | 1010.6 |
| 20260507191930 | 53 | 93 | 2.0 | 3.0 | 0.00 | 0.02 | 0.02 | 53 | 1010.7 |
| 20260507191426 | 52 | 46 | 2.0 | 5.0 | 0.00 | 0.02 | 0.02 | 52 | 1010.7 |
| 20260507190923 | 52 | 304 | 9.0 | 11.0 | 0.00 | 0.02 | 0.02 | 50 | 1010.7 |
| 20260507190421 | 53 | 258 | 6.0 | 7.0 | 0.00 | 0.02 | 0.02 | 49 | 1010.5 |
| 20260507185920 | 53 | 1 | 3.0 | 5.0 | 0.00 | 0.02 | 0.02 | 50 | 1010.6 |
| 20260507185417 | 52 | 197 | 5.0 | 6.0 | 0.00 | 0.02 | 0.02 | 49 | 1010.7 |
| 20260507184913 | 52 | 307 | 3.0 | 5.0 | 0.00 | 0.02 | 0.02 | 51 | 1010.9 |
| 20260507184411 | 53 | 240 | 4.0 | 5.0 | 0.00 | 0.02 | 0.02 | 51 | 1010.8 |
| 20260507183908 | 53 | 170 | 2.0 | 2.0 | 0.00 | 0.02 | 0.02 | 50 | 1010.7 |
| 20260507183405 | 54 | 290 | 4.0 | 5.0 | 0.00 | 0.02 | 0.02 | 49 | 1010.7 |
| 20260507182903 | 53 | 275 | 3.0 | 3.0 | 0.00 | 0.02 | 0.02 | 49 | 1011.0 |
| 20260507182358 | 53 | 243 | 3.0 | 5.0 | 0.00 | 0.02 | 0.02 | 48 | 1011.2 |
| 20260507181855 | 53 | 303 | 10.0 | 13.0 | 0.00 | 0.02 | 0.02 | 48 | 1011.0 |
| 20260507181350 | 53 | 307 | 5.0 | 7.0 | 0.00 | 0.02 | 0.02 | 48 | 1011.0 |
| 20260507180848 | 53 | 292 | 6.0 | 7.0 | 0.00 | 0.02 | 0.02 | 48 | 1010.8 |
| 20260507180344 | 54 | 295 | 5.0 | 7.0 | 0.00 | 0.02 | 0.02 | 48 | 1011.0 |
| 20260507175840 | 52 | 201 | 1.0 | 2.0 | 0.00 | 0.02 | 0.02 | 49 | 1011.2 |
| 20260507175337 | 53 | 318 | 3.0 | 7.0 | 0.00 | 0.02 | 0.02 | 49 | 1011.4 |
| 20260507174835 | 53 | 13 | 3.0 | 5.0 | 0.00 | 0.02 | 0.02 | 49 | 1011.1 |
| 20260507174332 | 53 | 314 | 3.0 | 3.0 | 0.00 | 0.02 | 0.02 | 50 | 1011.3 |
| 20260507173829 | 53 | 345 | 8.0 | 11.0 | 0.00 | 0.02 | 0.02 | 48 | 1011.1 |
| 20260507173326 | 53 | 120 | 2.0 | 3.0 | 0.00 | 0.02 | 0.02 | 50 | 1011.2 |
| 20260507172822 | 53 | 221 | 2.0 | 2.0 | 0.00 | 0.02 | 0.02 | 48 | 1011.2 |
| 20260507172319 | 54 | 291 | 5.0 | 7.0 | 0.00 | 0.02 | 0.02 | 47 | 1011.2 |
| 20260507171815 | 54 | 201 | 1.0 | 1.0 | 0.00 | 0.02 | 0.02 | 48 | 1011.2 |
| 20260507171312 | 54 | 237 | 3.0 | 6.0 | 0.00 | 0.02 | 0.02 | 47 | 1011.2 |
| 20260507170809 | 54 | 261 | 3.0 | 5.0 | 0.00 | 0.02 | 0.02 | 48 | 1011.3 |
| 20260507170306 | 55 | 296 | 6.0 | 9.0 | 0.00 | 0.02 | 0.02 | 46 | 1011.4 |
| 20260507165801 | 53 | 208 | 5.0 | 7.0 | 0.00 | 0.02 | 0.02 | 51 | 1011.6 |
| 20260507165258 | 52 | 258 | 9.0 | 11.0 | 0.00 | 0.02 | 0.02 | 50 | 1011.4 |
| 20260507164754 | 52 | 302 | 5.0 | 7.0 | 0.00 | 0.02 | 0.02 | 49 | 1011.6 |
| 20260507164251 | 53 | 316 | 8.0 | 13.0 | 0.00 | 0.02 | 0.02 | 49 | 1011.4 |
| 20260507163748 | 53 | 226 | 6.0 | 8.0 | 0.00 | 0.02 | 0.02 | 49 | 1011.4 |
| 20260507163246 | 52 | 268 | 5.0 | 7.0 | 0.00 | 0.02 | 0.02 | 49 | 1011.8 |
| 20260507162742 | 52 | 247 | 7.0 | 7.0 | 0.00 | 0.02 | 0.02 | 49 | 1011.7 |
| 20260507162238 | 52 | 286 | 7.0 | 9.0 | 0.00 | 0.02 | 0.02 | 48 | 1011.9 |
| 20260507161735 | 52 | 262 | 4.0 | 5.0 | 0.00 | 0.02 | 0.02 | 48 | 1011.7 |
| 20260507161231 | 53 | 253 | 1.0 | 2.0 | 0.00 | 0.02 | 0.02 | 50 | 1011.8 |
| 20260507160727 | 53 | 282 | 5.0 | 6.0 | 0.00 | 0.02 | 0.02 | 49 | 1012.0 |
| 20260507160224 | 53 | 123 | 1.0 | 1.0 | 0.00 | 0.02 | 0.02 | 50 | 1011.9 |
| 20260507155720 | 54 | 294 | 8.0 | 9.0 | 0.00 | 0.02 | 0.02 | 48 | 1012.0 |
| 20260507155216 | 52 | 219 | 4.0 | 6.0 | 0.00 | 0.02 | 0.02 | 51 | 1012.0 |
| 20260507154713 | 51 | 219 | 3.0 | 3.0 | 0.00 | 0.02 | 0.02 | 53 | 1012.3 |
| 20260507154211 | 51 | 281 | 5.0 | 6.0 | 0.00 | 0.02 | 0.02 | 51 | 1012.1 |
| 20260507153707 | 52 | 22 | 3.0 | 5.0 | 0.00 | 0.02 | 0.02 | 50 | 1012.0 |
| 20260507153203 | 52 | 66 | 3.0 | 3.0 | 0.00 | 0.02 | 0.02 | 53 | 1012.2 |
| 20260507152700 | 51 | 113 | 1.0 | 1.0 | 0.00 | 0.02 | 0.02 | 52 | 1012.2 |
| 20260507152156 | 50 | 24 | 4.0 | 5.0 | 0.00 | 0.02 | 0.02 | 52 | 1012.3 |
| 20260507151652 | 52 | 328 | 7.0 | 9.0 | 0.00 | 0.02 | 0.02 | 49 | 1012.2 |
| 20260507151149 | 52 | 164 | 0.0 | 0.0 | 0.00 | 0.02 | 0.02 | 50 | 1012.5 |
| 20260507150646 | 51 | 6 | 3.0 | 3.0 | 0.00 | 0.02 | 0.02 | 50 | 1012.3 |
| 20260507150143 | 50 | 78 | 4.0 | 5.0 | 0.00 | 0.02 | 0.02 | 51 | 1012.5 |
| 20260507145638 | 53 | 99 | 2.0 | 2.0 | 0.00 | 0.02 | 0.02 | 52 | 1012.4 |
| 20260507145136 | 53 | 234 | 3.0 | 3.0 | 0.00 | 0.02 | 0.02 | 47 | 1012.8 |
| 20260507144632 | 52 | 266 | 5.0 | 6.0 | 0.00 | 0.02 | 0.02 | 49 | 1012.7 |
| 20260507144130 | 51 | 151 | 2.0 | 2.0 | 0.00 | 0.02 | 0.02 | 50 | 1012.8 |
| 20260507143626 | 51 | 194 | 1.0 | 1.0 | 0.00 | 0.02 | 0.02 | 48 | 1012.8 |
| 20260507143124 | 51 | 232 | 2.0 | 3.0 | 0.00 | 0.02 | 0.02 | 49 | 1012.8 |
| 20260507142619 | 51 | 279 | 4.0 | 8.0 | 0.00 | 0.02 | 0.02 | 50 | 1012.8 |
| 20260507142116 | 50 | 60 | 2.0 | 2.0 | 0.00 | 0.02 | 0.02 | 50 | 1012.7 |
| 20260507141612 | 50 | 179 | 1.0 | 1.0 | 0.00 | 0.02 | 0.02 | 52 | 1012.8 |
| 20260507141109 | 50 | 301 | 2.0 | 5.0 | 0.00 | 0.02 | 0.02 | 55 | 1012.6 |
| 20260507140606 | 50 | 222 | 3.0 | 3.0 | 0.00 | 0.02 | 0.02 | 56 | 1012.7 |
| 20260507140103 | 49 | 180 | 2.0 | 3.0 | 0.00 | 0.02 | 0.02 | 58 | 1012.8 |
| 20260507135600 | 49 | 343 | 3.0 | 5.0 | 0.00 | 0.02 | 0.02 | 57 | 1013.0 |
| 20260507135058 | 48 | 229 | 2.0 | 3.0 | 0.00 | 0.02 | 0.02 | 62 | 1012.9 |
| 20260507134554 | 48 | 335 | 3.0 | 5.0 | 0.00 | 0.02 | 0.02 | 63 | 1013.1 |
| 20260507134050 | 48 | 162 | 1.0 | 1.0 | 0.00 | 0.02 | 0.02 | 63 | 1013.1 |
| 20260507133546 | 48 | 157 | 1.0 | 1.0 | 0.00 | 0.02 | 0.02 | 64 | 1013.0 |
| 20260507133044 | 46 | 118 | 1.0 | 2.0 | 0.00 | 0.02 | 0.02 | 67 | 1013.1 |
| 20260507132540 | 46 | 204 | 0.0 | 1.0 | 0.00 | 0.02 | 0.02 | 69 | 1013.0 |
| 20260507132036 | 46 | 303 | 4.0 | 5.0 | 0.00 | 0.02 | 0.02 | 68 | 1013.1 |
| 20260507131534 | 46 | 205 | 3.0 | 3.0 | 0.00 | 0.02 | 0.02 | 70 | 1012.9 |
| 20260507131031 | 45 | 108 | 2.0 | 2.0 | 0.00 | 0.02 | 0.02 | 69 | 1013.0 |
| 20260507130528 | 45 | 143 | 1.0 | 1.0 | 0.00 | 0.02 | 0.02 | 70 | 1013.3 |
| 20260507130026 | 45 | 338 | 3.0 | 5.0 | 0.00 | 0.02 | 0.02 | 70 | 1013.5 |
| 20260507125524 | 44 | 94 | 1.0 | 2.0 | 0.00 | 0.02 | 0.02 | 71 | 1013.1 |
| 20260507125021 | 44 | 39 | 3.0 | 3.0 | 0.00 | 0.02 | 0.02 | 72 | 1013.1 |
| 20260507124517 | 44 | 344 | 2.0 | 3.0 | 0.00 | 0.02 | 0.02 | 73 | 1013.5 |
| 20260507124016 | 44 | 324 | 4.0 | 5.0 | 0.00 | 0.02 | 0.02 | 75 | 1013.0 |
| 20260507123513 | 43 | 170 | 0.0 | 0.0 | 0.00 | 0.02 | 0.02 | 77 | 1013.3 |
| 20260507123010 | 43 | 43 | 1.0 | 2.0 | 0.00 | 0.02 | 0.02 | 78 | 1013.5 |
| 20260507122504 | 42 | 122 | 1.0 | 1.0 | 0.00 | 0.02 | 0.02 | 81 | 1013.4 |
| 20260507122001 | 42 | 276 | 3.0 | 3.0 | 0.00 | 0.02 | 0.02 | 83 | 1013.1 |
| 20260507121456 | 42 | 206 | 1.0 | 2.0 | 0.00 | 0.02 | 0.02 | 85 | 1013.4 |
| 20260507120948 | 41 | 199 | 1.0 | 2.0 | 0.00 | 0.02 | 0.02 | 86 | 1013.6 |
| 20260507120444 | 40 | 299 | 2.0 | 2.0 | 0.00 | 0.02 | 0.02 | 87 | 1013.1 |
| 20260507115941 | 40 | 289 | 2.0 | 2.0 | 0.00 | 0.02 | 0.02 | 89 | 1013.0 |
| 20260507115436 | 40 | 195 | 1.0 | 2.0 | 0.00 | 0.02 | 0.02 | 90 | 1012.9 |
| 20260507114932 | 40 | 279 | 2.0 | 2.0 | 0.00 | 0.02 | 0.02 | 90 | 1013.1 |
| 20260507114429 | 40 | 173 | 1.0 | 1.0 | 0.00 | 0.02 | 0.02 | 91 | 1012.9 |
| 20260507113927 | 40 | 168 | 0.0 | 1.0 | 0.00 | 0.02 | 0.02 | 91 | 1013.1 |
| 20260507113423 | 39 | 168 | 1.0 | 1.0 | 0.00 | 0.02 | 0.02 | 91 | 1013.0 |
| 20260507112921 | 39 | 184 | 1.0 | 1.0 | 0.00 | 0.02 | 0.02 | 91 | 1012.9 |
| 20260507112418 | 39 | 163 | 0.0 | 0.0 | 0.00 | 0.02 | 0.02 | 91 | 1013.3 |
| 20260507111915 | 39 | 175 | 1.0 | 1.0 | 0.00 | 0.02 | 0.02 | 91 | 1013.1 |
| 20260507111413 | 39 | 148 | 0.0 | 0.0 | 0.00 | 0.02 | 0.02 | 92 | 1013.0 |
| 20260507110909 | 37 | 141 | 0.0 | 0.0 | 0.00 | 0.02 | 0.02 | 92 | 1012.6 |
| 20260507110405 | 37 | 139 | 0.0 | 0.0 | 0.00 | 0.02 | 0.02 | 92 | 1012.7 |
| 20260507105901 | 36 | 126 | 1.0 | 1.0 | 0.00 | 0.02 | 0.02 | 92 | 1012.9 |
| 20260507105358 | 36 | 125 | 1.0 | 1.0 | 0.00 | 0.02 | 0.02 | 91 | 1012.9 |
| 20260507104855 | 35 | 147 | 0.0 | 1.0 | 0.00 | 0.02 | 0.02 | 91 | 1012.7 |
| 20260507104352 | 35 | 117 | 1.0 | 1.0 | 0.00 | 0.02 | 0.02 | 91 | 1012.9 |
| 20260507103848 | 34 | 128 | 1.0 | 1.0 | 0.00 | 0.02 | 0.02 | 91 | 1012.8 |
| 20260507103344 | 34 | 133 | 0.0 | 0.0 | 0.00 | 0.02 | 0.02 | 91 | 1012.9 |
| 20260507102841 | 34 | 148 | 0.0 | 0.0 | 0.00 | 0.02 | 0.02 | 91 | 1012.9 |
| 20260507102337 | 34 | 147 | 0.0 | 0.0 | 0.00 | 0.02 | 0.02 | 91 | 1012.6 |
| 20260507101833 | 34 | 139 | 1.0 | 1.0 | 0.00 | 0.02 | 0.02 | 91 | 1012.5 |
| 20260507101328 | 35 | 149 | 0.0 | 0.0 | 0.00 | 0.02 | 0.02 | 90 | 1012.7 |
| 20260507100826 | 35 | 162 | 0.0 | 0.0 | 0.00 | 0.02 | 0.02 | 90 | 1012.7 |
| 20260507100324 | 35 | 103 | 2.0 | 2.0 | 0.00 | 0.02 | 0.02 | 90 | 1012.3 |
| 20260507095821 | 35 | 128 | 1.0 | 1.0 | 0.00 | 0.02 | 0.02 | 90 | 1012.5 |
| 20260507095317 | 35 | 117 | 1.0 | 1.0 | 0.00 | 0.02 | 0.02 | 90 | 1012.4 |
| 20260507094815 | 35 | 151 | 0.0 | 0.0 | 0.00 | 0.02 | 0.02 | 90 | 1012.4 |
| 20260507094311 | 36 | 126 | 1.0 | 1.0 | 0.00 | 0.02 | 0.02 | 90 | 1012.6 |
| 20260507093808 | 35 | 91 | 2.0 | 3.0 | 0.00 | 0.02 | 0.02 | 89 | 1012.5 |
| 20260507093307 | 36 | 112 | 1.0 | 1.0 | 0.00 | 0.02 | 0.02 | 89 | 1012.8 |
| 20260507092804 | 36 | 86 | 2.0 | 2.0 | 0.00 | 0.02 | 0.02 | 89 | 1012.7 |
| 20260507092300 | 36 | 128 | 1.0 | 1.0 | 0.00 | 0.02 | 0.02 | 89 | 1012.5 |
| 20260507091757 | 36 | 126 | 1.0 | 1.0 | 0.00 | 0.02 | 0.02 | 88 | 1012.7 |
| 20260507091253 | 37 | 80 | 1.0 | 2.0 | 0.00 | 0.02 | 0.02 | 88 | 1012.7 |
| 20260507090748 | 37 | 111 | 2.0 | 2.0 | 0.00 | 0.02 | 0.02 | 88 | 1012.6 |
| 20260507090245 | 37 | 133 | 1.0 | 1.0 | 0.00 | 0.02 | 0.02 | 87 | 1012.7 |
| 20260507085742 | 37 | 101 | 2.0 | 2.0 | 0.00 | 0.02 | 0.02 | 87 | 1012.6 |
| 20260507085239 | 38 | 138 | 0.0 | 1.0 | 0.00 | 0.02 | 0.02 | 87 | 1012.5 |
| 20260507084736 | 38 | 114 | 1.0 | 1.0 | 0.00 | 0.02 | 0.02 | 87 | 1012.6 |
| 20260507084232 | 38 | 94 | 2.0 | 2.0 | 0.00 | 0.02 | 0.02 | 87 | 1012.6 |
| 20260507083730 | 38 | 52 | 3.0 | 3.0 | 0.00 | 0.02 | 0.02 | 87 | 1012.8 |
| 20260507083226 | 39 | 49 | 3.0 | 5.0 | 0.00 | 0.02 | 0.02 | 86 | 1012.5 |
| 20260507082722 | 39 | 49 | 3.0 | 3.0 | 0.00 | 0.02 | 0.02 | 86 | 1012.4 |
| 20260507082218 | 40 | 118 | 1.0 | 2.0 | 0.00 | 0.02 | 0.02 | 86 | 1012.7 |
| 20260507081715 | 40 | 123 | 1.0 | 1.0 | 0.00 | 0.02 | 0.02 | 86 | 1012.6 |
| 20260507081211 | 40 | 140 | 1.0 | 1.0 | 0.00 | 0.02 | 0.02 | 86 | 1012.5 |
| 20260507080708 | 40 | 135 | 1.0 | 1.0 | 0.00 | 0.02 | 0.02 | 85 | 1012.4 |
| 20260507080204 | 41 | 167 | 0.0 | 0.0 | 0.00 | 0.02 | 0.02 | 85 | 1012.5 |
| 20260507075700 | 41 | 138 | 1.0 | 1.0 | 0.00 | 0.02 | 0.02 | 85 | 1012.6 |
| 20260507075156 | 41 | 137 | 1.0 | 1.0 | 0.00 | 0.02 | 0.02 | 84 | 1012.5 |
| 20260507074653 | 41 | 128 | 2.0 | 2.0 | 0.00 | 0.02 | 0.02 | 84 | 1012.4 |
| 20260507074151 | 41 | 259 | 2.0 | 2.0 | 0.00 | 0.02 | 0.02 | 85 | 1012.6 |
| 20260507073647 | 41 | 334 | 3.0 | 3.0 | 0.00 | 0.02 | 0.02 | 84 | 1012.6 |
| 20260507073143 | 41 | 173 | 1.0 | 1.0 | 0.00 | 0.02 | 0.02 | 85 | 1012.4 |
| 20260507072642 | 41 | 173 | 1.0 | 1.0 | 0.00 | 0.02 | 0.02 | 85 | 1012.2 |
| 20260507072138 | 41 | 152 | 0.0 | 1.0 | 0.00 | 0.02 | 0.02 | 84 | 1012.4 |
| 20260507071636 | 41 | 1 | 0.0 | 2.0 | 0.00 | 0.02 | 0.02 | 85 | 1012.6 |
| 20260507071132 | 41 | 0 | 2.0 | 2.0 | 0.00 | 0.02 | 0.02 | 85 | 1012.3 |
| 20260507070629 | 41 | 36 | 1.0 | 2.0 | 0.00 | 0.02 | 0.02 | 85 | 1012.3 |
| 20260507070126 | 41 | 174 | 0.0 | 1.0 | 0.00 | 0.02 | 0.02 | 85 | 1012.2 |
| 20260507065622 | 41 | 215 | 1.0 | 1.0 | 0.00 | 0.02 | 0.02 | 86 | 1012.3 |
| 20260507065120 | 41 | 206 | 1.0 | 1.0 | 0.00 | 0.02 | 0.02 | 86 | 1012.6 |
| 20260507064617 | 41 | 290 | 2.0 | 2.0 | 0.00 | 0.02 | 0.02 | 87 | 1012.6 |
| 20260507064116 | 41 | 193 | 2.0 | 3.0 | 0.00 | 0.02 | 0.02 | 88 | 1012.3 |
| 20260507063613 | 41 | 331 | 5.0 | 7.0 | 0.00 | 0.02 | 0.02 | 88 | 1012.3 |
| 20260507063110 | 41 | 215 | 2.0 | 2.0 | 0.00 | 0.02 | 0.02 | 89 | 1012.2 |
| 20260507062606 | 41 | 107 | 2.0 | 2.0 | 0.00 | 0.02 | 0.02 | 90 | 1012.3 |
| 20260507062104 | 41 | 311 | 5.0 | 7.0 | 0.00 | 0.02 | 0.02 | 92 | 1012.2 |
| 20260507061602 | 42 | 305 | 2.0 | 6.0 | 0.00 | 0.02 | 0.02 | 93 | 1011.9 |
| 20260507061100 | 42 | 323 | 4.0 | 5.0 | 0.00 | 0.02 | 0.02 | 93 | 1012.0 |
| 20260507060557 | 42 | 342 | 4.0 | 6.0 | 0.00 | 0.02 | 0.02 | 94 | 1012.1 |
| 20260507060054 | 43 | 280 | 3.0 | 5.0 | 0.00 | 0.02 | 0.02 | 94 | 1012.1 |
| 20260507055548 | 43 | 208 | 4.0 | 5.0 | 0.00 | 0.02 | 0.02 | 94 | 1012.0 |
| 20260507055045 | 43 | 272 | 3.0 | 3.0 | 0.00 | 0.02 | 0.02 | 95 | 1011.7 |
| 20260507054541 | 44 | 288 | 2.0 | 2.0 | 0.00 | 0.02 | 0.02 | 95 | 1011.5 |
| 20260507054038 | 44 | 335 | 3.0 | 3.0 | 0.00 | 0.02 | 0.02 | 95 | 1011.8 |
| 20260507053536 | 44 | 310 | 3.0 | 3.0 | 0.00 | 0.02 | 0.02 | 95 | 1012.1 |
| 20260507053035 | 44 | 216 | 1.0 | 2.0 | 0.00 | 0.02 | 0.02 | 95 | 1012.0 |
| 20260507052532 | 44 | 175 | 1.0 | 1.0 | 0.00 | 0.02 | 0.02 | 95 | 1012.1 |
| 20260507052029 | 44 | 185 | 1.0 | 1.0 | 0.00 | 0.02 | 0.02 | 95 | 1012.1 |
| 20260507051527 | 44 | 182 | 1.0 | 1.0 | 0.00 | 0.02 | 0.02 | 94 | 1012.0 |
| 20260507051023 | 44 | 176 | 0.0 | 0.0 | 0.00 | 0.02 | 0.02 | 94 | 1012.1 |
| 20260507050519 | 44 | 205 | 1.0 | 1.0 | 0.00 | 0.02 | 0.02 | 94 | 1012.1 |
| 20260507050016 | 44 | 169 | 0.0 | 0.0 | 0.00 | 0.02 | 0.02 | 94 | 1012.1 |
| 20260507045513 | 44 | 172 | 0.0 | 0.0 | 0.00 | 0.02 | 0.02 | 94 | 1012.1 |
| 20260507045010 | 44 | 178 | 0.0 | 0.0 | 0.00 | 0.02 | 0.02 | 94 | 1012.0 |
| 20260507044507 | 44 | 186 | 0.0 | 1.0 | 0.07 | 0.02 | 0.02 | 94 | 1012.2 |
| 20260507044003 | 44 | 168 | 0.0 | 0.0 | 0.07 | 0.02 | 0.02 | 94 | 1012.1 |
| 20260507043459 | 44 | 185 | 1.0 | 1.0 | 0.00 | 0.01 | 0.01 | 94 | 1012.3 |
| 20260507042956 | 44 | 152 | 0.0 | 0.0 | 0.05 | 0.01 | 0.01 | 94 | 1012.1 |
| 20260507042453 | 44 | 151 | 0.0 | 0.0 | 0.05 | 0.01 | 0.01 | 94 | 1011.8 |
| 20260507041948 | 44 | 146 | 0.0 | 1.0 | 0.00 | 0.00 | 0.00 | 94 | 1012.0 |
| 20260507041445 | 44 | 147 | 0.0 | 0.0 | 0.00 | 0.00 | 0.00 | 94 | 1011.8 |
| 20260507040942 | 44 | 147 | 0.0 | 0.0 | 0.00 | 0.00 | 0.00 | 94 | 1011.9 |
| 20260507040438 | 44 | 136 | 1.0 | 1.0 | 0.00 | 0.00 | 0.00 | 94 | 1011.6 |
| 20260507035934 | 44 | 159 | 0.0 | 0.0 | 0.07 | 0.45 | 0.45 | 94 | 1011.5 |
| 20260507035431 | 44 | 159 | 0.0 | 0.0 | 0.07 | 0.45 | 0.45 | 94 | 1011.5 |
| 20260507034928 | 44 | 159 | 0.0 | 0.0 | 0.00 | 0.44 | 0.44 | 94 | 1011.5 |
| 20260507034425 | 44 | 148 | 0.0 | 0.0 | 0.00 | 0.44 | 0.44 | 94 | 1011.2 |
| 20260507033923 | 44 | 141 | 1.0 | 1.0 | 0.00 | 0.44 | 0.44 | 94 | 1011.4 |
| 20260507033420 | 44 | 153 | 0.0 | 0.0 | 0.00 | 0.44 | 0.44 | 94 | 1011.6 |
| 20260507032917 | 44 | 154 | 0.0 | 1.0 | 0.00 | 0.44 | 0.44 | 93 | 1011.7 |
| 20260507032414 | 44 | 134 | 1.0 | 1.0 | 0.00 | 0.44 | 0.44 | 93 | 1011.7 |
| 20260507031910 | 44 | 137 | 1.0 | 1.0 | 0.00 | 0.44 | 0.44 | 93 | 1011.5 |
| 20260507031407 | 44 | 146 | 0.0 | 1.0 | 0.00 | 0.44 | 0.44 | 93 | 1011.9 |
| 20260507030903 | 44 | 130 | 1.0 | 2.0 | 0.00 | 0.44 | 0.44 | 93 | 1011.8 |
| 20260507030401 | 44 | 148 | 0.0 | 0.0 | 0.00 | 0.44 | 0.44 | 93 | 1011.9 |
| 20260507025857 | 44 | 151 | 0.0 | 0.0 | 0.00 | 0.44 | 0.44 | 93 | 1012.0 |
| 20260507025355 | 44 | 149 | 0.0 | 0.0 | 0.00 | 0.44 | 0.44 | 93 | 1011.8 |
| 20260507024853 | 44 | 139 | 1.0 | 1.0 | 0.00 | 0.44 | 0.44 | 93 | 1011.8 |
| 20260507024350 | 44 | 157 | 0.0 | 0.0 | 0.00 | 0.44 | 0.44 | 93 | 1012.0 |
| 20260507023845 | 44 | 154 | 0.0 | 0.0 | 0.00 | 0.44 | 0.44 | 93 | 1011.9 |
| 20260507023342 | 44 | 138 | 1.0 | 1.0 | 0.00 | 0.44 | 0.44 | 93 | 1011.8 |
| 20260507022840 | 43 | 142 | 0.0 | 0.0 | 0.00 | 0.44 | 0.44 | 93 | 1012.0 |
| 20260507022336 | 44 | 162 | 0.0 | 0.0 | 0.00 | 0.44 | 0.44 | 93 | 1011.9 |
| 20260507021832 | 44 | 137 | 0.0 | 0.0 | 0.00 | 0.44 | 0.44 | 93 | 1011.8 |
| 20260507021328 | 44 | 172 | 0.0 | 0.0 | 0.00 | 0.44 | 0.44 | 92 | 1012.2 |
| 20260507020826 | 44 | 173 | 0.0 | 0.0 | 0.00 | 0.44 | 0.44 | 92 | 1012.2 |
| 20260507020322 | 44 | 173 | 0.0 | 0.0 | 0.00 | 0.44 | 0.44 | 92 | 1012.0 |
| 20260507015819 | 44 | 172 | 0.0 | 0.0 | 0.00 | 0.44 | 0.44 | 92 | 1012.1 |
| 20260507015317 | 44 | 173 | 0.0 | 0.0 | 0.00 | 0.44 | 0.44 | 92 | 1012.3 |
| 20260507014814 | 44 | 173 | 0.0 | 0.0 | 0.00 | 0.44 | 0.44 | 92 | 1012.4 |
| 20260507014310 | 44 | 172 | 0.0 | 0.0 | 0.00 | 0.44 | 0.44 | 92 | 1012.1 |
| 20260507013807 | 44 | 151 | 0.0 | 0.0 | 0.00 | 0.44 | 0.44 | 92 | 1011.8 |
| 20260507013304 | 44 | 150 | 0.0 | 0.0 | 0.00 | 0.44 | 0.44 | 92 | 1011.9 |
| 20260507012802 | 44 | 144 | 0.0 | 1.0 | 0.00 | 0.44 | 0.44 | 92 | 1012.0 |
| 20260507012257 | 44 | 172 | 1.0 | 1.0 | 0.00 | 0.44 | 0.44 | 92 | 1012.4 |
| 20260507011755 | 44 | 221 | 2.0 | 2.0 | 0.00 | 0.44 | 0.44 | 92 | 1012.1 |
| 20260507011251 | 45 | 214 | 1.0 | 1.0 | 0.00 | 0.44 | 0.44 | 92 | 1012.1 |
| 20260507010750 | 44 | 193 | 1.0 | 1.0 | 0.00 | 0.44 | 0.44 | 92 | 1011.9 |
| 20260507010247 | 44 | 172 | 0.0 | 0.0 | 0.00 | 0.44 | 0.44 | 92 | 1011.8 |
| 20260507005744 | 44 | 170 | 1.0 | 1.0 | 0.00 | 0.44 | 0.44 | 92 | 1011.9 |
| 20260507005241 | 45 | 334 | 3.0 | 3.0 | 0.00 | 0.44 | 0.44 | 92 | 1011.9 |
| 20260507004737 | 45 | 205 | 1.0 | 2.0 | 0.00 | 0.44 | 0.44 | 92 | 1011.8 |
| 20260507004235 | 45 | 197 | 1.0 | 1.0 | 0.00 | 0.44 | 0.44 | 92 | 1011.9 |
| 20260507003731 | 45 | 194 | 1.0 | 1.0 | 0.00 | 0.44 | 0.44 | 92 | 1011.5 |
| 20260507003226 | 45 | 167 | 0.0 | 1.0 | 0.00 | 0.44 | 0.44 | 92 | 1011.4 |
| 20260507002723 | 45 | 158 | 0.0 | 0.0 | 0.00 | 0.44 | 0.44 | 92 | 1011.5 |
| 20260507002219 | 45 | 175 | 1.0 | 1.0 | 0.00 | 0.44 | 0.44 | 92 | 1011.6 |
| 20260507001715 | 45 | 230 | 1.0 | 2.0 | 0.00 | 0.44 | 0.44 | 92 | 1011.5 |
| 20260507001213 | 45 | 199 | 1.0 | 2.0 | 0.00 | 0.44 | 0.44 | 92 | 1011.3 |
| 20260507000709 | 45 | 289 | 2.0 | 2.0 | 0.00 | 0.44 | 0.44 | 92 | 1011.5 |
| 20260507000205 | 45 | 172 | 1.0 | 1.0 | 0.00 | 0.44 | 0.44 | 93 | 1011.5 |
| 20260506235702 | 45 | 178 | 1.0 | 1.0 | 0.00 | 0.44 | 0.44 | 93 | 1011.3 |
| 20260506235157 | 45 | 193 | 1.0 | 1.0 | 0.00 | 0.44 | 0.44 | 93 | 1011.1 |
| 20260506234655 | 45 | 188 | 0.0 | 1.0 | 0.00 | 0.44 | 0.44 | 93 | 1011.3 |
| 20260506234151 | 45 | 180 | 1.0 | 1.0 | 0.00 | 0.44 | 0.44 | 93 | 1010.9 |
| 20260506233649 | 45 | 174 | 1.0 | 1.0 | 0.00 | 0.44 | 0.44 | 93 | 1011.0 |
| 20260506233146 | 45 | 208 | 1.0 | 1.0 | 0.00 | 0.44 | 0.44 | 93 | 1011.1 |
| 20260506232642 | 45 | 293 | 3.0 | 3.0 | 0.00 | 0.44 | 0.44 | 93 | 1011.0 |
| 20260506232137 | 45 | 198 | 1.0 | 1.0 | 0.00 | 0.44 | 0.44 | 94 | 1010.8 |
| 20260506231635 | 45 | 167 | 0.0 | 0.0 | 0.00 | 0.44 | 0.44 | 94 | 1011.1 |
| 20260506231133 | 45 | 206 | 1.0 | 1.0 | 0.00 | 0.44 | 0.44 | 94 | 1011.1 |
| 20260506230630 | 45 | 172 | 0.0 | 0.0 | 0.00 | 0.44 | 0.44 | 94 | 1010.6 |
| 20260506230127 | 45 | 146 | 1.0 | 1.0 | 0.00 | 0.44 | 0.44 | 94 | 1010.9 |
| 20260506225623 | 45 | 173 | 0.0 | 1.0 | 0.00 | 0.44 | 0.44 | 95 | 1010.7 |
| 20260506225120 | 45 | 286 | 2.0 | 2.0 | 0.00 | 0.44 | 0.44 | 95 | 1010.6 |
| 20260506224616 | 45 | 246 | 2.0 | 2.0 | 0.00 | 0.44 | 0.44 | 95 | 1010.7 |
| 20260506224113 | 45 | 208 | 3.0 | 3.0 | 0.00 | 0.44 | 0.44 | 95 | 1010.4 |
| 20260506223609 | 45 | 271 | 3.0 | 5.0 | 0.00 | 0.44 | 0.44 | 95 | 1010.3 |
| 20260506223105 | 45 | 69 | 1.0 | 1.0 | 0.00 | 0.44 | 0.44 | 95 | 1010.6 |
| 20260506222602 | 45 | 306 | 4.0 | 5.0 | 0.00 | 0.44 | 0.44 | 95 | 1010.5 |
| 20260506222059 | 45 | 164 | 0.0 | 0.0 | 0.00 | 0.44 | 0.44 | 95 | 1010.6 |
| 20260506221556 | 45 | 289 | 2.0 | 2.0 | 0.00 | 0.44 | 0.44 | 95 | 1010.5 |
| 20260506221054 | 45 | 314 | 5.0 | 6.0 | 0.00 | 0.44 | 0.44 | 95 | 1010.5 |
| 20260506220550 | 45 | 287 | 4.0 | 5.0 | 0.00 | 0.44 | 0.44 | 95 | 1010.2 |
| 20260506220046 | 45 | 324 | 5.0 | 6.0 | 0.00 | 0.44 | 0.44 | 95 | 1010.4 |
| 20260506215543 | 45 | 256 | 3.0 | 5.0 | 0.00 | 0.44 | 0.44 | 95 | 1010.4 |
| 20260506215038 | 45 | 200 | 3.0 | 3.0 | 0.00 | 0.44 | 0.44 | 95 | 1010.4 |
| 20260506214535 | 46 | 295 | 6.0 | 9.0 | 0.00 | 0.44 | 0.44 | 95 | 1010.3 |
| 20260506214033 | 46 | 290 | 3.0 | 3.0 | 0.00 | 0.44 | 0.44 | 95 | 1010.3 |
| 20260506213531 | 46 | 285 | 2.0 | 3.0 | 0.00 | 0.44 | 0.44 | 95 | 1010.0 |
| 20260506213028 | 46 | 145 | 1.0 | 2.0 | 0.00 | 0.44 | 0.44 | 95 | 1010.2 |
| 20260506212524 | 46 | 303 | 4.0 | 5.0 | 0.00 | 0.44 | 0.44 | 95 | 1010.1 |
| 20260506212019 | 46 | 158 | 3.0 | 3.0 | 0.00 | 0.44 | 0.44 | 95 | 1009.7 |
| 20260506211515 | 46 | 270 | 2.0 | 5.0 | 0.00 | 0.44 | 0.44 | 95 | 1009.5 |
| 20260506211013 | 46 | 315 | 3.0 | 6.0 | 0.00 | 0.44 | 0.44 | 95 | 1009.7 |
| 20260506210509 | 46 | 303 | 6.0 | 8.0 | 0.00 | 0.44 | 0.44 | 95 | 1009.6 |
| 20260506210006 | 46 | 337 | 3.0 | 5.0 | 0.00 | 0.44 | 0.44 | 95 | 1009.5 |
| 20260506205502 | 47 | 287 | 5.0 | 7.0 | 0.00 | 0.44 | 0.44 | 95 | 1009.2 |
| 20260506204958 | 47 | 173 | 0.0 | 0.0 | 0.00 | 0.44 | 0.44 | 95 | 1009.4 |
| 20260506204456 | 47 | 228 | 3.0 | 5.0 | 0.00 | 0.44 | 0.44 | 95 | 1009.1 |
| 20260506203953 | 47 | 149 | 1.0 | 1.0 | 0.00 | 0.44 | 0.44 | 95 | 1009.1 |
| 20260506203451 | 47 | 308 | 3.0 | 3.0 | 0.05 | 0.44 | 0.44 | 95 | 1009.3 |